sat.trackr.live / text

‹ back to catalog

STARLINK-3669

NORAD 51971 · 2022-025R

PAYLOAD ACTIVE UNKNOWN

§ Identity

Operator
Country
US
Launch date
2022-03-09
Launch site
AFETR
Launch vehicle
Mass (kg)
RCS (m²)

Purposes: comms

External: N2YO · Heavens-Above · Gunter

§ Orbital elements

Epoch: 2026-09-20T02:22:25.027392Z

Period
94.01 min
Inclination
53.1604°
Eccentricity
0.0001319
Mean motion
15.31710664 rev/d
Perigee alt
469.8 km
Apogee alt
471.6 km
Semi-major
6,848.8 km
B*
-2.1645e-5
RAAN
199.7415°
Arg perigee
99.3278°
Mean anomaly
260.7872°
Rev number
25,080

§ Raw data

STARLINK-36691 51971U 22025R   26263.09890078 -.00001037  00000+0 -21645-4 0  99982 51971  53.1604 199.7415 0001319  99.3278 260.7872 15.31710664250803

JSON: /api/v1/satellites/51971 · /tle

For live sub-satellite position, see the globe view (requires WebGL).

§ Visibility from observer

Set your observer location to see the next 7 days of passes ≥ 10°. The values pass through the URL so the page stays shareable.

No JS? Fill the form by hand. The geolocation button needs JavaScript.